<?xml version="1.0"?>
<gpx xmlns="http://www.topografix.com/GPX/1/1" xmlns:xsi="http://www.w3.org/2001/XMLSchema-instance" version="1.1" creator="GPX RubyGem 1.0.0 -- http://dougfales.github.io/gpx/" xsi:schemaLocation="http://www.topografix.com/GPX/1/1 http://www.topografix.com/GPX/1/1/gpx.xsd">
  <metadata>
    <name/>
    <time>2026-05-07T11:03:02+00:00</time>
    <bound minlat="90.0" minlon="180.0" maxlat="-90.0" maxlon="-180.0"/>
  </metadata>
  <trk>
    <name/>
    <trkseg>
      <trkpt lat="47.825759" lon="10.581768">
        <time>1970-01-01T00:00:00+00:00</time>
        <ele>752.0</ele>
      </trkpt>
      <trkpt lat="47.825796" lon="10.58134">
        <time>1970-01-01T00:00:00+00:00</time>
        <ele>753.0</ele>
      </trkpt>
      <trkpt lat="47.825861" lon="10.580737">
        <time>1970-01-01T00:00:00+00:00</time>
        <ele>757.0</ele>
      </trkpt>
      <trkpt lat="47.825906" lon="10.580608">
        <time>1970-01-01T00:00:00+00:00</time>
        <ele>758.0</ele>
      </trkpt>
      <trkpt lat="47.826119" lon="10.580275">
        <time>1970-01-01T00:00:00+00:00</time>
        <ele>760.0</ele>
      </trkpt>
      <trkpt lat="47.826293" lon="10.580116">
        <time>1970-01-01T00:00:00+00:00</time>
        <ele>762.0</ele>
      </trkpt>
      <trkpt lat="47.826711" lon="10.579844">
        <time>1970-01-01T00:00:00+00:00</time>
        <ele>766.0</ele>
      </trkpt>
      <trkpt lat="47.827003" lon="10.579771">
        <time>1970-01-01T00:00:00+00:00</time>
        <ele>765.0</ele>
      </trkpt>
      <trkpt lat="47.82716" lon="10.579542">
        <time>1970-01-01T00:00:00+00:00</time>
        <ele>767.0</ele>
      </trkpt>
      <trkpt lat="47.827232" lon="10.579041">
        <time>1970-01-01T00:00:00+00:00</time>
        <ele>771.0</ele>
      </trkpt>
      <trkpt lat="47.827436" lon="10.578175">
        <time>1970-01-01T00:00:00+00:00</time>
        <ele>777.0</ele>
      </trkpt>
      <trkpt lat="47.827453" lon="10.578038">
        <time>1970-01-01T00:00:00+00:00</time>
        <ele>778.0</ele>
      </trkpt>
      <trkpt lat="47.827425" lon="10.577942">
        <time>1970-01-01T00:00:00+00:00</time>
        <ele>779.0</ele>
      </trkpt>
      <trkpt lat="47.827165" lon="10.577625">
        <time>1970-01-01T00:00:00+00:00</time>
        <ele>783.0</ele>
      </trkpt>
      <trkpt lat="47.827054" lon="10.57745">
        <time>1970-01-01T00:00:00+00:00</time>
        <ele>786.0</ele>
      </trkpt>
      <trkpt lat="47.826741" lon="10.576774">
        <time>1970-01-01T00:00:00+00:00</time>
        <ele>791.0</ele>
      </trkpt>
      <trkpt lat="47.826611" lon="10.576068">
        <time>1970-01-01T00:00:00+00:00</time>
        <ele>798.0</ele>
      </trkpt>
      <trkpt lat="47.826497" lon="10.575789">
        <time>1970-01-01T00:00:00+00:00</time>
        <ele>800.0</ele>
      </trkpt>
      <trkpt lat="47.826432" lon="10.575471">
        <time>1970-01-01T00:00:00+00:00</time>
        <ele>802.0</ele>
      </trkpt>
      <trkpt lat="47.826411" lon="10.575175">
        <time>1970-01-01T00:00:00+00:00</time>
        <ele>804.0</ele>
      </trkpt>
      <trkpt lat="47.826407" lon="10.574923">
        <time>1970-01-01T00:00:00+00:00</time>
        <ele>807.0</ele>
      </trkpt>
      <trkpt lat="47.826423" lon="10.574647">
        <time>1970-01-01T00:00:00+00:00</time>
        <ele>812.0</ele>
      </trkpt>
      <trkpt lat="47.826453" lon="10.574463">
        <time>1970-01-01T00:00:00+00:00</time>
        <ele>815.0</ele>
      </trkpt>
      <trkpt lat="47.826606" lon="10.573847">
        <time>1970-01-01T00:00:00+00:00</time>
        <ele>825.0</ele>
      </trkpt>
      <trkpt lat="47.826592" lon="10.573776">
        <time>1970-01-01T00:00:00+00:00</time>
        <ele>826.0</ele>
      </trkpt>
      <trkpt lat="47.826426" lon="10.573351">
        <time>1970-01-01T00:00:00+00:00</time>
        <ele>829.0</ele>
      </trkpt>
      <trkpt lat="47.826396" lon="10.573223">
        <time>1970-01-01T00:00:00+00:00</time>
        <ele>830.0</ele>
      </trkpt>
      <trkpt lat="47.826391" lon="10.572985">
        <time>1970-01-01T00:00:00+00:00</time>
        <ele>834.0</ele>
      </trkpt>
      <trkpt lat="47.826455" lon="10.572668">
        <time>1970-01-01T00:00:00+00:00</time>
        <ele>837.0</ele>
      </trkpt>
      <trkpt lat="47.826488" lon="10.572404">
        <time>1970-01-01T00:00:00+00:00</time>
        <ele>839.0</ele>
      </trkpt>
      <trkpt lat="47.826484" lon="10.572254">
        <time>1970-01-01T00:00:00+00:00</time>
        <ele>839.0</ele>
      </trkpt>
      <trkpt lat="47.826376" lon="10.571645">
        <time>1970-01-01T00:00:00+00:00</time>
        <ele>839.0</ele>
      </trkpt>
      <trkpt lat="47.826368" lon="10.570853">
        <time>1970-01-01T00:00:00+00:00</time>
        <ele>842.0</ele>
      </trkpt>
      <trkpt lat="47.826298" lon="10.570459">
        <time>1970-01-01T00:00:00+00:00</time>
        <ele>843.0</ele>
      </trkpt>
      <trkpt lat="47.826304" lon="10.570312">
        <time>1970-01-01T00:00:00+00:00</time>
        <ele>843.0</ele>
      </trkpt>
      <trkpt lat="47.826356" lon="10.569962">
        <time>1970-01-01T00:00:00+00:00</time>
        <ele>843.0</ele>
      </trkpt>
      <trkpt lat="47.826344" lon="10.569822">
        <time>1970-01-01T00:00:00+00:00</time>
        <ele>843.0</ele>
      </trkpt>
      <trkpt lat="47.826293" lon="10.569674">
        <time>1970-01-01T00:00:00+00:00</time>
        <ele>843.0</ele>
      </trkpt>
      <trkpt lat="47.82622" lon="10.569549">
        <time>1970-01-01T00:00:00+00:00</time>
        <ele>843.0</ele>
      </trkpt>
      <trkpt lat="47.825907" lon="10.569335">
        <time>1970-01-01T00:00:00+00:00</time>
        <ele>844.0</ele>
      </trkpt>
      <trkpt lat="47.825667" lon="10.569113">
        <time>1970-01-01T00:00:00+00:00</time>
        <ele>845.0</ele>
      </trkpt>
      <trkpt lat="47.825467" lon="10.568984">
        <time>1970-01-01T00:00:00+00:00</time>
        <ele>845.0</ele>
      </trkpt>
      <trkpt lat="47.825301" lon="10.5688">
        <time>1970-01-01T00:00:00+00:00</time>
        <ele>845.0</ele>
      </trkpt>
      <trkpt lat="47.824881" lon="10.568597">
        <time>1970-01-01T00:00:00+00:00</time>
        <ele>844.0</ele>
      </trkpt>
      <trkpt lat="47.824182" lon="10.568612">
        <time>1970-01-01T00:00:00+00:00</time>
        <ele>837.0</ele>
      </trkpt>
      <trkpt lat="47.824155" lon="10.568627">
        <time>1970-01-01T00:00:00+00:00</time>
        <ele>836.0</ele>
      </trkpt>
      <trkpt lat="47.824137" lon="10.568637">
        <time>1970-01-01T00:00:00+00:00</time>
        <ele>836.0</ele>
      </trkpt>
      <trkpt lat="47.824125" lon="10.568823">
        <time>1970-01-01T00:00:00+00:00</time>
        <ele>834.0</ele>
      </trkpt>
      <trkpt lat="47.82416" lon="10.569496">
        <time>1970-01-01T00:00:00+00:00</time>
        <ele>829.0</ele>
      </trkpt>
      <trkpt lat="47.82416" lon="10.569496">
        <time>1970-01-01T00:00:00+00:00</time>
        <ele>829.0</ele>
      </trkpt>
      <trkpt lat="47.824125" lon="10.568823">
        <time>1970-01-01T00:00:00+00:00</time>
        <ele>834.0</ele>
      </trkpt>
      <trkpt lat="47.824137" lon="10.568637">
        <time>1970-01-01T00:00:00+00:00</time>
        <ele>836.0</ele>
      </trkpt>
      <trkpt lat="47.824155" lon="10.568627">
        <time>1970-01-01T00:00:00+00:00</time>
        <ele>836.0</ele>
      </trkpt>
      <trkpt lat="47.824182" lon="10.568612">
        <time>1970-01-01T00:00:00+00:00</time>
        <ele>837.0</ele>
      </trkpt>
      <trkpt lat="47.824881" lon="10.568597">
        <time>1970-01-01T00:00:00+00:00</time>
        <ele>844.0</ele>
      </trkpt>
      <trkpt lat="47.825301" lon="10.5688">
        <time>1970-01-01T00:00:00+00:00</time>
        <ele>845.0</ele>
      </trkpt>
      <trkpt lat="47.825467" lon="10.568984">
        <time>1970-01-01T00:00:00+00:00</time>
        <ele>845.0</ele>
      </trkpt>
      <trkpt lat="47.825667" lon="10.569113">
        <time>1970-01-01T00:00:00+00:00</time>
        <ele>845.0</ele>
      </trkpt>
      <trkpt lat="47.825907" lon="10.569335">
        <time>1970-01-01T00:00:00+00:00</time>
        <ele>844.0</ele>
      </trkpt>
      <trkpt lat="47.82622" lon="10.569549">
        <time>1970-01-01T00:00:00+00:00</time>
        <ele>843.0</ele>
      </trkpt>
      <trkpt lat="47.826293" lon="10.569674">
        <time>1970-01-01T00:00:00+00:00</time>
        <ele>843.0</ele>
      </trkpt>
      <trkpt lat="47.826344" lon="10.569822">
        <time>1970-01-01T00:00:00+00:00</time>
        <ele>843.0</ele>
      </trkpt>
      <trkpt lat="47.826356" lon="10.569962">
        <time>1970-01-01T00:00:00+00:00</time>
        <ele>843.0</ele>
      </trkpt>
      <trkpt lat="47.826304" lon="10.570312">
        <time>1970-01-01T00:00:00+00:00</time>
        <ele>843.0</ele>
      </trkpt>
      <trkpt lat="47.826298" lon="10.570459">
        <time>1970-01-01T00:00:00+00:00</time>
        <ele>843.0</ele>
      </trkpt>
      <trkpt lat="47.826368" lon="10.570853">
        <time>1970-01-01T00:00:00+00:00</time>
        <ele>842.0</ele>
      </trkpt>
      <trkpt lat="47.826376" lon="10.571645">
        <time>1970-01-01T00:00:00+00:00</time>
        <ele>839.0</ele>
      </trkpt>
      <trkpt lat="47.826484" lon="10.572254">
        <time>1970-01-01T00:00:00+00:00</time>
        <ele>839.0</ele>
      </trkpt>
      <trkpt lat="47.826488" lon="10.572404">
        <time>1970-01-01T00:00:00+00:00</time>
        <ele>839.0</ele>
      </trkpt>
      <trkpt lat="47.826455" lon="10.572668">
        <time>1970-01-01T00:00:00+00:00</time>
        <ele>837.0</ele>
      </trkpt>
      <trkpt lat="47.826391" lon="10.572985">
        <time>1970-01-01T00:00:00+00:00</time>
        <ele>834.0</ele>
      </trkpt>
      <trkpt lat="47.826396" lon="10.573223">
        <time>1970-01-01T00:00:00+00:00</time>
        <ele>830.0</ele>
      </trkpt>
      <trkpt lat="47.826426" lon="10.573351">
        <time>1970-01-01T00:00:00+00:00</time>
        <ele>829.0</ele>
      </trkpt>
      <trkpt lat="47.826592" lon="10.573776">
        <time>1970-01-01T00:00:00+00:00</time>
        <ele>826.0</ele>
      </trkpt>
      <trkpt lat="47.826606" lon="10.573847">
        <time>1970-01-01T00:00:00+00:00</time>
        <ele>825.0</ele>
      </trkpt>
      <trkpt lat="47.826453" lon="10.574463">
        <time>1970-01-01T00:00:00+00:00</time>
        <ele>815.0</ele>
      </trkpt>
      <trkpt lat="47.826423" lon="10.574647">
        <time>1970-01-01T00:00:00+00:00</time>
        <ele>812.0</ele>
      </trkpt>
      <trkpt lat="47.826407" lon="10.574923">
        <time>1970-01-01T00:00:00+00:00</time>
        <ele>807.0</ele>
      </trkpt>
      <trkpt lat="47.826411" lon="10.575175">
        <time>1970-01-01T00:00:00+00:00</time>
        <ele>804.0</ele>
      </trkpt>
      <trkpt lat="47.826432" lon="10.575471">
        <time>1970-01-01T00:00:00+00:00</time>
        <ele>802.0</ele>
      </trkpt>
      <trkpt lat="47.826497" lon="10.575789">
        <time>1970-01-01T00:00:00+00:00</time>
        <ele>800.0</ele>
      </trkpt>
      <trkpt lat="47.826611" lon="10.576068">
        <time>1970-01-01T00:00:00+00:00</time>
        <ele>798.0</ele>
      </trkpt>
      <trkpt lat="47.826741" lon="10.576774">
        <time>1970-01-01T00:00:00+00:00</time>
        <ele>791.0</ele>
      </trkpt>
      <trkpt lat="47.827054" lon="10.57745">
        <time>1970-01-01T00:00:00+00:00</time>
        <ele>786.0</ele>
      </trkpt>
      <trkpt lat="47.827165" lon="10.577625">
        <time>1970-01-01T00:00:00+00:00</time>
        <ele>783.0</ele>
      </trkpt>
      <trkpt lat="47.827425" lon="10.577942">
        <time>1970-01-01T00:00:00+00:00</time>
        <ele>779.0</ele>
      </trkpt>
      <trkpt lat="47.827453" lon="10.578038">
        <time>1970-01-01T00:00:00+00:00</time>
        <ele>778.0</ele>
      </trkpt>
      <trkpt lat="47.827436" lon="10.578175">
        <time>1970-01-01T00:00:00+00:00</time>
        <ele>777.0</ele>
      </trkpt>
      <trkpt lat="47.827232" lon="10.579041">
        <time>1970-01-01T00:00:00+00:00</time>
        <ele>771.0</ele>
      </trkpt>
      <trkpt lat="47.82716" lon="10.579542">
        <time>1970-01-01T00:00:00+00:00</time>
        <ele>767.0</ele>
      </trkpt>
      <trkpt lat="47.827003" lon="10.579771">
        <time>1970-01-01T00:00:00+00:00</time>
        <ele>765.0</ele>
      </trkpt>
      <trkpt lat="47.826711" lon="10.579844">
        <time>1970-01-01T00:00:00+00:00</time>
        <ele>766.0</ele>
      </trkpt>
      <trkpt lat="47.826293" lon="10.580116">
        <time>1970-01-01T00:00:00+00:00</time>
        <ele>762.0</ele>
      </trkpt>
      <trkpt lat="47.826119" lon="10.580275">
        <time>1970-01-01T00:00:00+00:00</time>
        <ele>760.0</ele>
      </trkpt>
      <trkpt lat="47.825906" lon="10.580608">
        <time>1970-01-01T00:00:00+00:00</time>
        <ele>758.0</ele>
      </trkpt>
      <trkpt lat="47.825861" lon="10.580737">
        <time>1970-01-01T00:00:00+00:00</time>
        <ele>757.0</ele>
      </trkpt>
      <trkpt lat="47.825796" lon="10.58134">
        <time>1970-01-01T00:00:00+00:00</time>
        <ele>753.0</ele>
      </trkpt>
      <trkpt lat="47.825759" lon="10.581768">
        <time>1970-01-01T00:00:00+00:00</time>
        <ele>752.0</ele>
      </trkpt>
    </trkseg>
  </trk>
</gpx>
